Weather Roundup
Issued by NWS Chicago, IL

Home | Current Version | Previous Version | Text Only | Print | Product List | Glossary On
Versions: 1 2 3 4 5 6 7 8 9 10 11 12 13 14 15 16 17 18 19 20 21 22 23 24 25 26 27 28 29 30 31 32 33 34 35 36 37 38 39 40 41 42 43 44 45 46 47 48 49 50
000
NZUS59 KLOT 280503
HRRLOT

CHICAGO AREA WEATHER ROUNDUP
NATIONAL WEATHER SERVICE CHICAGO/ROMEOVILLE IL
1200 AM CDT SAT MAY 28 2016

NOTE: "FAIR" INDICATES FEW OR NO CLOUDS BELOW 12,000 FEET WITH NO
SIGNIFICANT WEATHER AND/OR OBSTRUCTIONS TO VISIBILITY.

* THESE STATIONS ARE NOT UNDER NWS QUALITY CONTROL. THEY ALSO MAY NOT
  REPORT WEATHER SUCH AS PRECIPITATION OR FOG.

ILZ005-006-012>014-019>023-280600-
NORTHEAST ILLINOIS

CITY           SKY/WX    TMP DP  RH WIND       PRES   REMARKS
OHARE          CLOUDY    68  65  90 S14       29.87F
MIDWAY         CLOUDY    71  65  81 S10       29.88S
AURORA         CLOUDY    70  66  87 S12       29.87R
LANSING*       LGT RAIN  69  64  83 S10       29.90F
WAUKEGAN       CLOUDY    69  66  90 S10       29.86S
DUPAGE AIRPORT CLOUDY    69  64  84 S12       29.86F
WHEELING       CLOUDY    69  66  90 S13       29.88S
MORRIS*        CLOUDY    70  65  86 S10G17    29.86S
$$

WIZ051-052-058>065-066-070>072-280600-
SOUTHEAST WISCONSIN

CITY           SKY/WX    TMP DP  RH WIND       PRES   REMARKS
MILWAUKEE      LGT RAIN  70  65  84 S13       29.84S
KENOSHA*       LGT RAIN  70  65  84 S10       29.86S
RACINE*        LGT RAIN  67  63  87 S9        29.88R
BURLINGTON     CLOUDY    68  64  88 S7        29.84S FOG
$$

INZ001>003-010>013-019-020-280600-
NORTHWEST INDIANA

CITY           SKY/WX    TMP DP  RH WIND       PRES   REMARKS
GARY*          NOT AVBL
MICHIGAN CITY* NOT AVBL
RENSSELAER*    NOT AVBL
VALPARAISO     CLOUDY    69  64  84 S6        29.93F
$$

LMZ740>746-280600-
SOUTHERN LAKE MICHIGAN

STATION/POSITION TIME  SKY/WX   TEMP WIND        PRES    VSBY
                                AIR  DIR/SP/G
                 (UTC)          (F)  (DEG/KT/KT) (MB)    (MI)
HARRISON CRIB    0400            69  180/ 16/ 17   N/A
BURNHAM HARBOR   0500            70  190/  9/ 14   N/A
CALUMET HARBOR   0400            71  170/ 11/ 15 1011.8R
BURNS HARBOR     0401            71  190/ 15/ 23 1013.2R
MICHIGAN CITY    0400            72  170/ 17/ 20   N/A
$$

ABBREVIATIONS USED IN REMARKS
   TC - TEMPERATURE IN CELSIUS
  WCI - WIND CHILL INDEX
   HX - HEAT INDEX
  VSB - VISIBILITY
$$




USA.gov is the U.S. government's official web portal to all federal, state and local government web resources and services.